Location: Euclid Beach Mobile Home Park
(41.5819°N, 81.5650°W)
Time: 19:28:31
(UTC+00:00)

Daily predictions for brighter satellites

Satellite Brightness Start Highest point End
(mag) Time Altitude Azimuth Time Altitude Azimuth Time Altitude Azimuth
SAR-Lupe-2 4.5 12:02:36 10° SSE 12:06:05 51° ENE 12:09:36 10° N
STARLINK 1054 3.5 12:02:47 10° NW 12:06:10 57° NE 12:09:32 10° ESE
STARLINK 1062 3.5 12:05:23 10° NW 12:08:46 60° NE 12:12:09 10° ESE
Okean 3 3.5 12:05:43 10° NNW 12:09:51 62° W 12:13:59 10° S
Feng Yun 1-1 Rocket 4.3 12:05:20 10° NNE 12:10:54 79° WNW 12:16:35 10° SSW
Cosmos 2279 Rocket 4.2 12:05:37 10° SSW 12:11:35 50° WNW 12:17:37 10° N
COSMOS 2428 2.8 22:20:14 10° SSW 22:25:51 70° ESE 22:31:32 10° NNE
Cosmos 1302 Rocket 4.1 22:21:22 10° NNW 22:26:35 58° ENE 22:31:44 10° SSE
Cosmos 1315 Rocket 2.9 22:23:20 10° S 22:27:17 83° W 22:31:20 10° N
Cosmos 1862 Rocket 4.4 22:25:11 10° SSE 22:28:57 30° E 22:32:47 10° NNE
Cosmos 1346 Rocket 2.8 22:27:06 10° N 22:31:05 90° W 22:35:04 10° S
IRS-1C Rocket 4.2 22:26:02 10° SSE 22:31:12 58° ENE 22:36:23 10° N
Cosmos 2251 Rocket 4.2 22:26:25 10° SSE 22:31:15 37° ESE 22:36:05 10° NE
Cosmos 1689 Rocket 4.1 22:29:33 10° N 22:32:15 30° WNW 22:34:56 10° SW
Meteor 1-5 Rocket 4.4 22:26:59 10° N 22:32:20 46° ENE 22:37:29 10° SSE
Okean-O 3.4 22:31:09 10° SE 22:34:57 29° ENE 22:38:48 10° N
Cosmos 1666 4.4 22:36:10 10° NE 22:38:01 13° ENE 22:39:53 10° E
ATLAS 2AS CENTAUR R/B 3.9 22:31:48 10° WSW 22:39:24 47° NW 22:47:05 10° NNE
Shenzhou-11 Module 1.7 22:37:50 10° W 22:40:35 78° N 22:42:58 13° ENE
NOSS 0 Rocket 4.2 22:36:35 10° S 22:42:29 49° ESE 22:48:28 10° NE
STARLINK-46 3.0 22:41:28 10° WSW 22:44:06 51° NW 22:46:26 12° NE
Exosat Rocket 3.7 22:39:02 10° S 22:44:33 56° ESE 22:49:26 10° NNE
AQUARIUS 4.2 22:40:16 10° SSE 22:44:41 61° ENE 22:49:08 10° N
Cosmos 1707 Rocket 3.8 22:40:25 10° SSW 22:44:51 74° W 22:49:20 10° N
CZ-4B R/B 4.5 22:40:51 10° S 22:45:53 45° W 22:51:03 10° NNW
Meteor 2-6 Rocket 4.3 22:47:56 10° SSW 22:53:19 77° W 22:58:44 10° N
Radarsat 4.5 22:48:42 10° SSE 22:53:52 73° ENE 22:59:04 10° N
ISS -2.7 22:50:57 10° NW 22:53:55 28° NNE 22:55:48 17° ENE
Envisat 3.3 22:49:32 10° SE 22:54:19 44° ENE 22:59:08 10° N
STARLINK-60 4.4 22:55:28 10° S 22:58:18 25° SE 22:59:56 17° E
RESURS DK-1 2.7 22:56:13 10° SSW 23:00:19 66° WNW 23:04:26 10° NNE
Cosmos 2278 Rocket 2.3 22:56:29 10° NNW 23:02:03 54° ENE 23:07:34 10° SE
Cosmos 1812 2.6 23:00:32 10° S 23:04:22 81° E 23:08:15 10° N
Cosmos 1908 Rocket 4.2 23:01:58 10° NNE 23:05:57 32° ENE 23:09:53 10° SE
Cosmos 2360 Rocket 4.3 23:02:10 10° W 23:06:23 21° NW 23:10:39 10° N
COSMO-SKYMED 1 3.0 23:03:54 10° NNE 23:07:59 39° E 23:12:03 10° SSE
USA 215 4.4 23:06:11 10° NE 23:11:48 33° NNW 23:17:29 10° W
Cosmos 1992 Rocket 4.0 23:06:53 10° NNW 23:12:02 56° ENE 23:17:09 10° SE
CENTAUR R/B 4.4 23:06:08 10° NW 23:13:52 46° WSW 23:22:01 10° S
SL-16 R/B 3.3 23:09:33 10° SSE 23:14:01 24° ESE 23:15:45 21° ENE
YAOGAN 1 3.4 23:11:20 10° SE 23:15:01 28° ENE 23:18:44 10° N
Atlas Centaur 2 4.4 23:10:14 10° WSW 23:16:54 32° S 23:24:09 10° SE
Cosmos 2333 Rocket 3.3 23:12:07 10° SW 23:17:35 45° WNW 23:23:07 10° NNE
Meteor 1-11 Rocket 4.0 23:17:11 10° NNW 23:23:11 79° W 23:29:06 10° S
Nadezhda 4 Rocket 4.1 23:18:32 10° S 23:24:52 83° W 23:31:14 10° N
Cosmos 2237 Rocket 2.1 23:20:38 10° SSW 23:26:20 84° ESE 23:31:23 14° NNE
Meteor 1-27 Rocket 3.9 23:20:40 10° SSW 23:26:21 77° W 23:32:12 10° N
BREEZE-M DEB (TANK) 2.1 23:22:38 10° WNW 23:27:03 46° NNE 23:27:30 41° NE
Cosmos 1500 3.9 23:25:26 10° NNW 23:29:07 53° W 23:32:45 10° S
Cosmos 1536 2.7 23:25:08 10° N 23:29:11 87° E 23:33:10 10° S
Cosmos 1900 4.4 23:25:00 10° NNW 23:29:46 51° NE 23:33:19 17° SE
Okean 1-7 3.3 23:27:33 10° SSE 23:31:38 43° E 23:33:00 32° NE
FALCON 9 DEB 3.7 23:28:44 10° SSW 23:32:01 39° SE 23:32:21 38° ESE
SKYMED 3 4.4 23:28:13 12° NNE 23:32:12 74° ESE 23:36:32 10° S
Cosmos 1733 Rocket 4.1 23:28:15 10° NNW 23:32:26 47° W 23:36:39 10° SSW
CZ-4 R/B 1.3 23:28:50 10° SSE 23:32:40 53° ENE 23:36:28 10° N
YAOGAN 6 2.4 23:35:08 10° SSE 23:38:39 85° ENE 23:42:12 10° N
Lacrosse 5 rocket 2.5 23:38:42 10° WSW 23:42:40 36° NW 23:44:24 25° N
Cosmos 2219 Rocket 3.9 23:38:45 10° WSW 23:43:34 29° NW 23:48:26 10° N
USA 267 4.5 23:39:20 10° SSE 23:45:25 41° SW 23:51:33 10° WNW
Cosmos 2026 Rocket 3.8 23:41:33 10° S 23:47:33 67° E 23:53:34 10° NNE
STARLINK-52 3.9 23:46:55 10° SSW 23:49:46 42° SSE 23:49:46 42° SSE
Meteor 1-18 Rocket 4.4 23:45:12 10° SSE 23:50:42 48° E 23:52:19 38° NE
Okean 1 4.5 23:46:57 10° SSE 23:49:09 29° SSE 23:49:09 29° SSE
BREEZE-M R/B 4.2 23:48:57 10° WNW 23:52:37 23° N 23:52:37 23° N
SL-4 R/B 3.5 23:49:55 10° WNW 23:53:04 23° NNW 23:53:28 23° N
Cosmos 1190 Rocket 4.3 23:49:16 10° S 23:53:52 42° ESE 23:53:52 42° ESE
